TABOR31 KNKX-EGUL

Flight info

Callsign TABOR31
Flight time N/A
Altitude 41000
Route LAKEE3 TRM J236 TBC J128 HBU J10 LBF/N0457F400 DCT YANKI/N0454F410 J114 GEP J21 DLH Q924 MECNU DCT 51N083W 54N075W 56N066W/M079F410 58N056W 59N046W 59N035W 58N024W DCT BILTO/N0454F410 DCT PEVAN DCT TADEX DCT SOSIM L15 HON P155 SIVDA
Aircraft F35/M-SDE3RV/LB1

Departure

Time 2026-04-25 08:41
Airport Miramar Marine Corps Air Station - Mitscher Field (KNKX)

Arrival

Time N/A
Airport RAF Lakenheath (EGUL)
Time Latitude Longitude Altitude Speed Heading
2026-04-25 08:33 32.87608 -117.12815 443 ft 0 kts 257°
2026-04-25 08:38 32.87603 -117.12834 436 ft 0 kts 253°
2026-04-25 08:38 32.87575 -117.12849 439 ft 14 kts 178°
2026-04-25 08:38 32.87445 -117.12788 441 ft 20 kts 152°
2026-04-25 08:38 32.87382 -117.12769 449 ft 0 kts 175°
2026-04-25 08:39 32.87342 -117.12754 452 ft 18 kts 164°
2026-04-25 08:39 32.87273 -117.12845 452 ft 15 kts 256°
2026-04-25 08:40 32.87269 -117.12861 452 ft 0 kts 255°
2026-04-25 08:41 32.87269 -117.12862 452 ft 3 kts 255°
2026-04-25 08:41 32.87087 -117.13674 503 ft 181 kts 254°
2026-04-25 08:41 32.86696 -117.15502 720 ft 283 kts 254°
2026-04-25 08:41 32.86383 -117.18326 1529 ft 386 kts 282°
2026-04-25 08:42 32.87830 -117.21286 3273 ft 453 kts 323°
2026-04-25 08:42 32.90794 -117.22443 4171 ft 455 kts 359°
2026-04-25 08:42 32.93845 -117.22006 5885 ft 429 kts
2026-04-25 08:42 32.96660 -117.21182 7711 ft 405 kts 13°
2026-04-25 08:43 32.99238 -117.20076 9544 ft 382 kts 19°
2026-04-25 08:43 33.01563 -117.18730 10965 ft 373 kts 23°
2026-04-25 08:43 33.03736 -117.17232 11070 ft 347 kts 29°
2026-04-25 08:43 33.05499 -117.15729 11117 ft 258 kts 21°
2026-04-25 08:44 33.07161 -117.14707 11328 ft 332 kts 22°
2026-04-25 08:44 33.09651 -117.13153 12096 ft 469 kts 24°
2026-04-25 08:44 33.12887 -117.11165 13612 ft 572 kts 24°
2026-04-25 08:44 33.16641 -117.08904 15266 ft 644 kts 24°
2026-04-25 08:45 33.20728 -117.06461 16915 ft 648 kts 24°
2026-04-25 08:45 33.24560 -117.04560 17536 ft 523 kts 24°
2026-04-25 08:45 33.27292 -117.02383 17860 ft 422 kts 31°
2026-04-25 08:45 33.29475 -117.00848 17918 ft 306 kts
2026-04-25 08:46 33.31760 -117.00396 18091 ft 385 kts 25°
2026-04-25 08:46 33.34258 -116.97886 17531 ft 546 kts 41°
2026-04-25 08:46 33.35979 -116.94055 19059 ft 559 kts 95°
2026-04-25 08:46 33.35634 -116.88991 19249 ft 659 kts 96°
2026-04-25 08:47 33.35178 -116.83289 19335 ft 719 kts 97°
2026-04-25 08:47 33.34670 -116.77078 19370 ft 779 kts 97°
2026-04-25 08:47 33.34114 -116.70373 19445 ft 834 kts 97°
2026-04-25 08:47 33.33521 -116.63273 19793 ft 879 kts 97°
2026-04-25 08:48 33.32898 -116.55861 20222 ft 904 kts 97°
2026-04-25 08:48 33.32477 -116.50881 20477 ft 914 kts 97°
2026-04-25 08:48 33.32928 -116.43494 22838 ft 889 kts 65°
2026-04-25 08:48 33.36898 -116.38055 25857 ft 863 kts 33°
2026-04-25 08:49 33.43420 -116.32543 29161 ft 866 kts 33°
2026-04-25 08:49 33.46725 -116.29690 30323 ft 872 kts 33°
2026-04-25 08:49 33.52985 -116.24275 30996 ft 716 kts 30°
2026-04-25 08:49 33.56980 -116.21124 31915 ft 649 kts 31°
2026-04-25 08:50 33.59317 -116.19055 32448 ft 596 kts 31°
2026-04-25 08:50 33.62502 -116.15859 33171 ft 602 kts 37°
2026-04-25 08:50 33.65450 -116.12522 33895 ft 562 kts 39°
2026-04-25 08:50 33.67866 -116.09034 34474 ft 526 kts 50°
2026-04-25 08:51 33.70097 -116.05325 35184 ft 579 kts 49°
2026-04-25 08:51 33.72767 -116.01358 35926 ft 635 kts 44°
2026-04-25 08:51 33.75699 -115.97236 36571 ft 656 kts 46°
2026-04-25 08:51 33.78614 -115.92997 37228 ft 654 kts 46°
2026-04-25 08:52 33.81502 -115.88796 38396 ft 652 kts 46°
2026-04-25 08:52 33.84400 -115.84566 39075 ft 656 kts 46°
2026-04-25 08:52 33.87289 -115.80370 39689 ft 648 kts 45°
2026-04-25 08:52 33.90167 -115.76230 40442 ft 645 kts 46°
2026-04-25 08:53 33.93035 -115.72044 40610 ft 648 kts 46°
2026-04-25 08:53 33.98721 -115.63643 40733 ft 646 kts 46°
2026-04-25 08:53 34.01563 -115.59433 40838 ft 646 kts 46°
2026-04-25 08:54 34.04379 -115.55286 40750 ft 646 kts 46°
2026-04-25 08:54 34.10064 -115.46934 40771 ft 635 kts 46°
2026-04-25 08:54 34.12915 -115.42848 40431 ft 636 kts 44°
2026-04-25 08:55 34.15738 -115.38840 40489 ft 610 kts 46°
2026-04-25 08:55 34.18339 -115.34838 40723 ft 614 kts 49°
2026-04-25 08:55 34.21053 -115.30722 40750 ft 624 kts 46°
2026-04-25 08:56 34.26560 -115.22576 40802 ft 620 kts 42°
2026-04-25 08:56 34.28743 -115.18413 41119 ft 518 kts 45°
2026-04-25 08:56 34.31296 -115.15175 40598 ft 560 kts 39°
2026-04-25 08:56 34.33655 -115.11900 40807 ft 0 kts 46°
2026-04-25 08:57 34.37367 -115.06830 40701 ft 630 kts 48°
2026-04-25 08:57 34.40009 -115.02533 40623 ft 644 kts 49°
2026-04-25 08:57 34.42786 -114.98246 40513 ft 646 kts 45°
2026-04-25 08:57 34.45567 -114.94123 40593 ft 623 kts 47°
2026-04-25 08:58 34.48239 -114.90019 40671 ft 623 kts 46°
2026-04-25 08:58 34.53813 -114.81826 40693 ft 643 kts 50°
2026-04-25 08:58 34.56554 -114.77598 40658 ft 619 kts 45°
2026-04-25 08:59 34.59274 -114.73648 40699 ft 604 kts 47°
2026-04-25 08:59 34.61954 -114.69513 40718 ft 636 kts 47°
2026-04-25 08:59 34.64724 -114.65359 40873 ft 632 kts 46°
2026-04-25 08:59 34.67409 -114.61321 40743 ft 610 kts 46°
2026-04-25 09:00 34.70091 -114.57265 40723 ft 624 kts 47°
2026-04-25 09:00 34.73062 -114.53501 40785 ft 597 kts 30°
2026-04-25 09:00 34.76619 -114.50827 40849 ft 607 kts 16°
2026-04-25 09:00 34.80474 -114.48929 40782 ft 587 kts 14°
2026-04-25 09:01 34.84303 -114.47126 40848 ft 588 kts 12°
2026-04-25 09:01 34.88180 -114.45606 40775 ft 567 kts
2026-04-25 09:01 34.91992 -114.44602 40752 ft 573 kts
2026-04-25 09:01 34.95840 -114.43880 40030 ft 554 kts 356°
2026-04-25 09:02 34.99784 -114.43028 39617 ft 558 kts 357°
2026-04-25 09:02 35.03573 -114.42375 39370 ft 557 kts 358°
2026-04-25 09:02 35.07407 -114.41697 39272 ft 551 kts 358°
2026-04-25 09:02 35.11116 -114.40931 37984 ft 505 kts
2026-04-25 09:03 35.14977 -114.39946 36219 ft 578 kts 358°
2026-04-25 09:03 35.18920 -114.39277 36074 ft 577 kts 359°
2026-04-25 09:03 35.22974 -114.38571 34887 ft 606 kts 358°
2026-04-25 09:03 35.27354 -114.37907 34229 ft 657 kts 359°
2026-04-25 09:04 35.31470 -114.37210 31611 ft 581 kts
2026-04-25 09:04 35.35768 -114.36485 26824 ft 659 kts
2026-04-25 09:04 35.40451 -114.35670 21774 ft 693 kts
2026-04-25 09:04 35.45272 -114.34782 16270 ft 706 kts
2026-04-25 09:05 35.49960 -114.34220 8469 ft 658 kts 355°
2026-04-25 09:05 35.54222 -114.36042 3261 ft 668 kts 328°
2026-04-25 09:05 35.58378 -114.38992 2919 ft 709 kts 331°
2026-04-25 09:05 35.62653 -114.42152 3285 ft 719 kts 326°
2026-04-25 09:06 35.66295 -114.45219 2764 ft 535 kts 324°
2026-04-25 09:06 35.69568 -114.47291 2644 ft 564 kts 337°
2026-04-25 09:06 35.73360 -114.49276 2515 ft 620 kts 335°
2026-04-25 09:06 35.77423 -114.51443 2458 ft 644 kts 336°
2026-04-25 09:07 35.80943 -114.54289 2526 ft 524 kts 322°
2026-04-25 09:07 35.84070 -114.57100 2496 ft 602 kts 319°
2026-04-25 09:07 35.86602 -114.60456 2028 ft 477 kts 326°
2026-04-25 09:07 35.89845 -114.62596 2094 ft 565 kts 351°
2026-04-25 09:08 35.93530 -114.63776 2346 ft 479 kts 330°
2026-04-25 09:08 35.95746 -114.65883 2290 ft 371 kts 306°
2026-04-25 09:08 35.97414 -114.69098 1910 ft 492 kts 304°
2026-04-25 09:08 35.99464 -114.71825 1613 ft 444 kts 339°
2026-04-25 09:09 36.01335 -114.74211 1773 ft 422 kts 294°
2026-04-25 09:09 36.02963 -114.76534 1492 ft 392 kts 330°
2026-04-25 09:09 36.05910 -114.78533 1870 ft 546 kts 330°
2026-04-25 09:09 36.08804 -114.80475 2079 ft 416 kts 330°
2026-04-25 09:10 36.11116 -114.82006 2205 ft 340 kts 330°
2026-04-25 09:10 36.13357 -114.83494 2351 ft 445 kts 330°
2026-04-25 09:10 36.16492 -114.85496 3098 ft 480 kts 353°
2026-04-25 09:10 36.19825 -114.83994 7046 ft 594 kts 37°
2026-04-25 09:11 36.25826 -114.74849 7721 ft 747 kts 54°
2026-04-25 09:11 36.28987 -114.69519 8385 ft 782 kts 54°
2026-04-25 09:11 36.32254 -114.63992 8989 ft 806 kts 54°
2026-04-25 09:12 36.35608 -114.58318 9582 ft 821 kts 54°
2026-04-25 09:12 36.38977 -114.52499 8708 ft 840 kts 57°
2026-04-25 09:12 36.41905 -114.46292 7387 ft 844 kts 64°
2026-04-25 09:12 36.44564 -114.40312 7692 ft 673 kts 16°
2026-04-25 09:13 36.46242 -114.43293 5998 ft 551 kts 243°
2026-04-25 09:13 36.43688 -114.46517 5692 ft 488 kts 218°
2026-04-25 09:13 36.42444 -114.50017 6255 ft 428 kts 271°
2026-04-25 09:13 36.42275 -114.53306 5668 ft 318 kts 262°
2026-04-25 09:14 36.42066 -114.55961 5885 ft 288 kts 263°
2026-04-25 09:14 36.41904 -114.58220 6052 ft 241 kts 263°
2026-04-25 09:14 36.41553 -114.61130 5159 ft 447 kts 257°
2026-04-25 09:14 36.41196 -114.64251 5100 ft 331 kts 261°
2026-04-25 09:15 36.40924 -114.66934 4905 ft 310 kts 261°
2026-04-25 09:15 36.40630 -114.69677 4945 ft 341 kts 262°
2026-04-25 09:15 36.40341 -114.72356 4901 ft 303 kts 261°
2026-04-25 09:15 36.40031 -114.75115 4929 ft 325 kts 261°
2026-04-25 09:16 36.39748 -114.77684 4916 ft 278 kts 261°
2026-04-25 09:16 36.39460 -114.80320 4931 ft 353 kts 261°
2026-04-25 09:16 36.39171 -114.83182 4496 ft 316 kts 262°
2026-04-25 09:16 36.38796 -114.85747 4445 ft 291 kts 253°
2026-04-25 09:17 36.36081 -114.89936 4251 ft 345 kts 221°
2026-04-25 09:17 36.34310 -114.91791 3864 ft 327 kts 221°
2026-04-25 09:17 36.32678 -114.93577 3830 ft 312 kts 221°
2026-04-25 09:18 36.30991 -114.95415 3842 ft 319 kts 222°
2026-04-25 09:18 36.29383 -114.97206 3824 ft 322 kts 222°
2026-04-25 09:18 36.27766 -114.98988 3810 ft 315 kts 222°
2026-04-25 09:18 36.26137 -115.00757 3768 ft 302 kts 221°
2026-04-25 09:19 36.24511 -115.02505 3749 ft 312 kts 221°
2026-04-25 09:19 36.22662 -115.03659 3699 ft 317 kts 156°
2026-04-25 09:19 36.22513 -115.01777 3221 ft 231 kts 49°
2026-04-25 09:19 36.23610 -115.00375 3082 ft 233 kts 45°
2026-04-25 09:20 36.25062 -114.98561 3217 ft 299 kts 40°
2026-04-25 09:20 36.26523 -114.98623 3158 ft 205 kts 303°
2026-04-25 09:20 36.26516 -114.99981 2548 ft 156 kts 233°
2026-04-25 09:20 36.25965 -115.00983 2162 ft 121 kts 232°
2026-04-25 09:21 36.25276 -115.01849 1995 ft 154 kts 221°
2026-04-25 09:21 36.24527 -115.02666 1882 ft 129 kts 221°
2026-04-25 09:21 36.24006 -115.03233 1881 ft 80 kts 221°
2026-04-25 09:21 36.23662 -115.03605 1880 ft 51 kts 221°
2026-04-25 09:22 36.23452 -115.03833 1883 ft 14 kts 233°
2026-04-25 09:22 36.23500 -115.04003 1885 ft 21 kts 253°
2026-04-25 09:22 36.23386 -115.04147 1884 ft 22 kts 224°
2026-04-25 09:22 36.23425 -115.04252 1885 ft 5 kts 249°
2026-04-25 09:23 36.23405 -115.04274 1884 ft 0 kts 221°